When you browse on this site, cookies collect data to enhance your experience and personalize the content and advertising you see.
Visit our Privacy Policy to learn more. By continuing to use the site, you agree to this use of cookies and data.
  • In Österreich
  • Länderverzeichnis
  • Für 7 Tage
  • Wassertemperatur
  • Satellitenkarten
  • Wetterkarte
  • News
  • Widgets
  • user-avatar
    Anmelden

    Stündliche Wetter Mendoza

    Heute, 16 Juli, Dienstag

    Zeit Temperatur Niederschläge Wind Luftdruck Luftfeuchtigkeit
    00:00 +9°C° 0 mm 2 m/S 699 mmHg 58%
    01:00 +9°C° 0 mm 2 m/S 699 mmHg 59%
    02:00 +9°C° 0 mm 2 m/S 699 mmHg 62%
    03:00 +9°C° 0 mm 1 m/S 698 mmHg 64%
    04:00 +9°C° 0 mm 1 m/S 698 mmHg 67%
    05:00 +8°C° 0 mm 1 m/S 698 mmHg 68%
    06:00 +8°C° 0 mm 1 m/S 698 mmHg 69%
    07:00 +8°C° 0 mm 1 m/S 698 mmHg 69%
    08:00 +10°C° 0 mm 1 m/S 699 mmHg 62%
    09:00 +13°C° 0 mm 2 m/S 699 mmHg 55%
    10:00 +15°C° 0 mm 2 m/S 699 mmHg 48%
    11:00 +16°C° 0 mm 2 m/S 699 mmHg 45%
    12:00 +17°C° 0 mm 2 m/S 698 mmHg 42%
    13:00 +18°C° 0 mm 2 m/S 698 mmHg 39%
    14:00 +18°C° 0 mm 2 m/S 698 mmHg 39%
    15:00 +19°C° 0 mm 1 m/S 698 mmHg 40%
    16:00 +19°C° 0 mm 1 m/S 698 mmHg 40%
    17:00 +18°C° 0 mm 1 m/S 699 mmHg 43%
    18:00 +15°C° 0 mm 1 m/S 699 mmHg 46%
    19:00 +14°C° 0 mm 1 m/S 699 mmHg 49%
    20:00 +13°C° 0 mm 1 m/S 699 mmHg 50%
    21:00 +13°C° 0 mm 1 m/S 699 mmHg 50%
    22:00 +13°C° 0 mm 1 m/S 699 mmHg 51%
    23:00 +12°C° 0 mm 1 m/S 699 mmHg 54%

    Morgen, 17 Juli, Mittwoch

    Zeit Temperatur Niederschläge Wind Luftdruck Luftfeuchtigkeit
    00:00 +12°C° 0 mm 1 m/S 699 mmHg 57%
    01:00 +11°C° 0 mm 1 m/S 698 mmHg 60%
    02:00 +11°C° 0 mm 1 m/S 698 mmHg 61%
    03:00 +10°C° 0 mm 1 m/S 698 mmHg 62%
    04:00 +10°C° 0 mm 1 m/S 697 mmHg 63%
    05:00 +10°C° 0 mm 1 m/S 697 mmHg 64%
    06:00 +10°C° 0 mm 1 m/S 697 mmHg 65%
    07:00 +10°C° 0 mm 1 m/S 697 mmHg 66%
    08:00 +12°C° 0 mm 1 m/S 698 mmHg 60%
    09:00 +14°C° 0 mm 1 m/S 698 mmHg 55%
    10:00 +15°C° 0 mm 1 m/S 698 mmHg 49%
    11:00 +17°C° 0 mm 2 m/S 698 mmHg 46%
    12:00 +18°C° 0 mm 2 m/S 697 mmHg 42%
    13:00 +19°C° 0 mm 2 m/S 697 mmHg 39%
    14:00 +19°C° 0 mm 2 m/S 696 mmHg 40%
    15:00 +19°C° 0 mm 1 m/S 696 mmHg 40%
    16:00 +19°C° 0 mm 1 m/S 696 mmHg 41%
    17:00 +17°C° 0 mm 2 m/S 696 mmHg 42%
    18:00 +16°C° 0 mm 2 m/S 696 mmHg 44%
    19:00 +15°C° 0 mm 2 m/S 697 mmHg 46%
    20:00 +14°C° 0 mm 3 m/S 697 mmHg 46%
    21:00 +14°C° 0 mm 3 m/S 698 mmHg 47%
    22:00 +13°C° 0 mm 3 m/S 698 mmHg 48%
    23:00 +13°C° 0 mm 5 m/S 698 mmHg 49%

    übermorgen, 18 Juli, Donnerstag

    Zeit Temperatur Niederschläge Wind Luftdruck Luftfeuchtigkeit
    00:00 +13°C° 0 mm 6 m/S 699 mmHg 51%
    01:00 +11°C° 0 mm 7 m/S 699 mmHg 52%
    02:00 +11°C° 0 mm 7 m/S 699 mmHg 54%
    03:00 +10°C° 0 mm 7 m/S 700 mmHg 56%
    04:00 +9°C° 0 mm 7 m/S 700 mmHg 59%
    05:00 +9°C° 0 mm 7 m/S 701 mmHg 59%
    06:00 +9°C° 0 mm 6 m/S 702 mmHg 59%
    07:00 +8°C° 0 mm 6 m/S 702 mmHg 59%
    08:00 +8°C° 0 mm 5 m/S 703 mmHg 55%
    09:00 +9°C° 0 mm 5 m/S 703 mmHg 52%
    10:00 +10°C° 0 mm 4 m/S 704 mmHg 48%
    11:00 +10°C° 0 mm 4 m/S 703 mmHg 45%
    12:00 +11°C° 0 mm 3 m/S 703 mmHg 42%
    13:00 +12°C° 0 mm 2 m/S 702 mmHg 39%
    14:00 +13°C° 0 mm 2 m/S 702 mmHg 39%
    15:00 +13°C° 0 mm 2 m/S 702 mmHg 38%
    16:00 +13°C° 0 mm 2 m/S 702 mmHg 38%
    17:00 +12°C° 0 mm 2 m/S 701 mmHg 40%
    18:00 +10°C° 0 mm 2 m/S 701 mmHg 41%
    19:00 +9°C° 0 mm 1 m/S 701 mmHg 43%
    20:00 +9°C° 0 mm 1 m/S 701 mmHg 44%
    21:00 +9°C° 0 mm 1 m/S 701 mmHg 45%
    22:00 +8°C° 0 mm 1 m/S 700 mmHg 46%
    23:00 +8°C° 0 mm 1 m/S 700 mmHg 46%

    19 Juli, Freitag

    Zeit Temperatur Niederschläge Wind Luftdruck Luftfeuchtigkeit
    00:00 +7°C° 0 mm 1 m/S 699 mmHg 47%
    01:00 +7°C° 0 mm 1 m/S 698 mmHg 47%
    02:00 +7°C° 0 mm 1 m/S 698 mmHg 47%
    03:00 +7°C° 0 mm 1 m/S 697 mmHg 46%
    04:00 +7°C° 0 mm 1 m/S 697 mmHg 45%
    05:00 +7°C° 0 mm 1 m/S 697 mmHg 46%
    06:00 +7°C° 0 mm 1 m/S 697 mmHg 47%
    07:00 +7°C° 0 mm 1 m/S 696 mmHg 48%
    08:00 +9°C° 0 mm 1 m/S 696 mmHg 44%
    09:00 +10°C° 0 mm 2 m/S 696 mmHg 40%
    10:00 +13°C° 0 mm 2 m/S 696 mmHg 36%
    11:00 +14°C° 0 mm 2 m/S 695 mmHg 35%
    12:00 +15°C° 0 mm 2 m/S 694 mmHg 33%
    13:00 +17°C° 0 mm 2 m/S 694 mmHg 32%
    14:00 +17°C° 0 mm 2 m/S 693 mmHg 33%
    15:00 +18°C° 0 mm 1 m/S 693 mmHg 33%
    16:00 +18°C° 0 mm 1 m/S 693 mmHg 34%
    17:00 +16°C° 0 mm 1 m/S 693 mmHg 35%
    18:00 +15°C° 0 mm 2 m/S 693 mmHg 37%
    19:00 +12°C° 0 mm 3 m/S 693 mmHg 39%
    20:00 +12°C° 0 mm 3 m/S 693 mmHg 39%
    21:00 +12°C° 0 mm 3 m/S 693 mmHg 39%
    22:00 +12°C° 0 mm 4 m/S 693 mmHg 38%
    23:00 +11°C° 0 mm 4 m/S 693 mmHg 39%

    20 Juli, Samstag

    Zeit Temperatur Niederschläge Wind Luftdruck Luftfeuchtigkeit
    00:00 +11°C° 0 mm 4 m/S 693 mmHg 40%
    01:00 +11°C° 0 mm 4 m/S 692 mmHg 41%
    02:00 +11°C° 0 mm 4 m/S 692 mmHg 43%
    03:00 +10°C° 0 mm 4 m/S 692 mmHg 45%
    04:00 +10°C° 0 mm 3 m/S 692 mmHg 47%
    05:00 +10°C° 0 mm 3 m/S 692 mmHg 51%
    06:00 +10°C° 0 mm 3 m/S 693 mmHg 56%
    07:00 +10°C° 0 mm 2 m/S 693 mmHg 60%
    08:00 +10°C° 0 mm 3 m/S 693 mmHg 59%
    09:00 +11°C° 0 mm 3 m/S 693 mmHg 58%
    10:00 +11°C° 0 mm 3 m/S 693 mmHg 57%
    11:00 +11°C° 0 mm 3 m/S 692 mmHg 55%
    12:00 +12°C° 0 mm 3 m/S 692 mmHg 54%
    13:00 +12°C° 0 mm 4 m/S 691 mmHg 52%
    14:00 +12°C° 0 mm 3 m/S 691 mmHg 51%
    15:00 +11°C° 0 mm 3 m/S 691 mmHg 50%
    16:00 +11°C° 0 mm 3 m/S 691 mmHg 49%
    17:00 +10°C° 0 mm 3 m/S 691 mmHg 51%
    18:00 +9°C° 0 mm 2 m/S 692 mmHg 52%
    19:00 +9°C° 0 mm 2 m/S 692 mmHg 54%
    20:00 +8°C° 0 mm 2 m/S 692 mmHg 56%
    21:00 +8°C° 0 mm 2 m/S 692 mmHg 58%
    22:00 +8°C° 0 mm 1 m/S 692 mmHg 59%
    23:00 +8°C° 0 mm 1 m/S 692 mmHg 61%

    21 Juli, Sonntag

    Zeit Temperatur Niederschläge Wind Luftdruck Luftfeuchtigkeit
    00:00 +8°C° 0 mm 1 m/S 692 mmHg 63%
    01:00 +7°C° 0 mm 1 m/S 692 mmHg 64%
    02:00 +7°C° 0 mm 1 m/S 692 mmHg 67%
    03:00 +7°C° 0 mm 1 m/S 692 mmHg 70%
    04:00 +7°C° 0 mm 1 m/S 692 mmHg 73%
    05:00 +7°C° 0 mm 1 m/S 692 mmHg 72%
    06:00 +7°C° 0 mm 1 m/S 693 mmHg 72%
    07:00 +6°C° 0 mm 2 m/S 694 mmHg 71%
    08:00 +7°C° 0 mm 3 m/S 695 mmHg 64%
    09:00 +8°C° 0 mm 3 m/S 695 mmHg 58%
    10:00 +10°C° 0 mm 4 m/S 696 mmHg 51%
    11:00 +8°C° 0 mm 4 m/S 696 mmHg 52%
    12:00 +8°C° 0 mm 4 m/S 696 mmHg 53%
    13:00 +8°C° 0 mm 4 m/S 696 mmHg 54%
    14:00 +7°C° 0 mm 4 m/S 696 mmHg 57%
    15:00 +7°C° 0 mm 4 m/S 697 mmHg 60%
    16:00 +7°C° 0 mm 4 m/S 697 mmHg 63%
    17:00 +6°C° 0 mm 4 m/S 698 mmHg 69%
    18:00 +5°C° 0 mm 3 m/S 699 mmHg 75%
    19:00 +5°C° 0 mm 3 m/S 700 mmHg 81%
    20:00 +5°C° 0 mm 3 m/S 700 mmHg 82%
    21:00 +4°C° 0 mm 3 m/S 700 mmHg 84%
    22:00 +5°C° 0 mm 2 m/S 701 mmHg 85%
    23:00 +5°C° 0 mm 2 m/S 701 mmHg 85%
    Mehr zeigen